www.pogodaiklimat.ru

Погода и климат >> Архив погоды >> Корея >> Сеонгсан


ПОГОДА на Сеонгсане

  • Прогноз погоды на Сеонгсане
  • Монитор погоды на Сеонгсане

АРХИВ ПОГОДЫ на Сеонгсане

Время (UTC), дата Ветер
(напр.,м/с)
 
Видим.   Явления Облачность Т
(С)
Тd
(С)
f
(%)
Тe
(С)
Тes
(С)
Комфортность P
(гПа)
Po
(гПа)
Тmin
(С)
Tmax
(С)
R
(мм)
R24
(мм)
S
(см)
21 8.09 Ю 4 6000 м 10/5 300 м
[]
+26.0 +24.9 94 +37 +37 очень
душно
1007.1 1004.8
00 9.09 Ю 12 11 км 9/9 300 м
[]
+27.1 +25.1 89 +39 +39 очень
душно
1007.8 1005.5 +24.1 2
03 9.09 15 км н/о +27.8 +25.2 86 +40 +42 очень
душно
1006.6 1004.3
06 9.09 З 5 17 км 9/9 200 м
[]
+26.1 +24.8 93 +37 +38 очень
душно
1005.6 1003.3
09 9.09 ЮЗ 5 8000 м 8/5 300 м
[]
+26.4 +24.4 89 +37 +37 очень
душно
1007.6 1005.3
12 9.09 З 8 6000 м 6/6 1000 м
[]
+25.8 +24.2 91 +36 +36 очень
душно
1010.0 1007.7 +28.8 2
15 9.09 8000 м н/о +25.6 +23.8 90 +35 +35 очень
душно
1011.0 1008.7
18 9.09 З 4 9000 м 5/5 300 м
[]
+25.1 +23.1 89 +34 +34 очень
душно
1010.7 1008.4
21 9.09 4200 м н/о +25.1 +23.3 90 +34 +34 очень
душно
1012.0 1009.7
00 10.09 З 10 10 км 9/9 300 м
[]
+27.7 +23.5 78 +38 +38 очень
душно
1013.6 1011.3 +24.9 0.0
03 10.09 7000 м н/о +27.3 +24.5 85 +39 +39 очень
душно
1013.7 1011.4
06 10.09 ЮЗ 4 14 км 8/0
[]
+28.9 +25.5 82 +43 +43 опасность
перегрева
1012.9 1010.6
09 10.09 14 км н/о +26.9 +24.3 86 +38 +38 очень
душно
1013.0 1010.7
12 10.09 ЮВ 1 8000 м 8/8 300 м
[]
+25.5 +23.3 88 +34 +34 очень
душно
1014.3 1012.0 +29.4
15 10.09 СЗ 1 15 км 4/3 300 м
[]
+25.0 +22.4 86 +33 +33 очень
душно
1014.6 1012.3
18 10.09 З 2 6000 м 4/4 300 м
[]
+24.5 +23.4 94 +33 +33 очень
душно
1014.0 1011.7
21 10.09 З 2 15 км 3/0
[]
+25.3 +24.2 94 +35 +35 очень
душно
1014.2 1011.9
00 11.09 З 2 20 км 5/5 300 м
[]
+28.5 +25.5 84 +42 +45 опасность
перегрева
1014.8 1012.5 +24.1
03 11.09 Ю 2 19 км 5/0
[]
+29.4 +24.4 75 +42 +54 опасность
перегрева
1014.3 1012.0
06 11.09 В 3 15 км 8/8 300 м
[]
+27.3 +23.3 79 +37 +39 очень
душно
1013.2 1010.9
09 11.09 7000 м н/о +26.0 +23.4 86 +35 +36 очень
душно
1013.5 1011.2
12 11.09 С 2 3900 м 5/5 1500 м
[]
+24.7 +22.9 90 +33 +33 очень
душно
1014.4 1012.1 +30.1
15 11.09 С 4 5000 м н/о +24.3 +22.7 91 +32 +32 очень
душно
1014.8 1012.5
18 11.09 В 5 15 км 6/6 300 м
[]
+25.2 +23.2 89 +34 +34 очень
душно
1013.8 1011.5
21 11.09 15 км н/о +25.1 +23.1 89 +34 +34 очень
душно
1014.0 1011.7
00 12.09 В 6 13 км 8/8 300 м
[]
+24.9 +22.3 85 +32 +33 очень
душно
1015.2 1012.9 +24.1
03 12.09 В 6 13 км 9// 300 м
[]
+24.7 +21.8 84 +32 +35 очень
душно
1014.8 1012.5
06 12.09 В 6 15 км 9/9 300 м
[]
+24.5 +20.8 80 +31 +33 очень
душно
1013.7 1011.4
09 12.09 15 км н/о +23.8 +19.9 79 +29 +29 душно 1013.8 1011.5
12 12.09 В 5 18 км 6/6 600 м
[]
+23.8 +19.3 76 +29 +29 душно 1014.7 1012.4 +26.0
15 12.09 19 км н/о +23.3 +19.2 78 +30 +30 очень
душно
1014.1 1011.8
18 12.09 В 4 20 км 8/8 600 м
[]
+23.0 +18.7 77 +29 +29 очень
душно
1013.2 1010.9
21 12.09 20 км н/о +22.8 +18.9 79 +29 +29 очень
душно
1013.1 1010.8
00 13.09 В 5 20 км 6/6 300 м
[]
+24.7 +19.9 75 +30 +32 очень
душно
1013.2 1010.9 +22.8
03 13.09 20 км н/о +24.4 +19.8 76 +30 +31 очень
душно
1012.8 1010.5
06 13.09 В 6 20 км 5/5 600 м
[]
+25.4 +20.2 73 +31 +33 очень
душно
1011.2 1008.9
09 13.09 В 4 20 км 3/0
[]
+24.5 +18.4 69 +29 +29 душно 1011.6 1009.3
12 13.09 В 4 20 км 3/0
[]
+24.0 +17.9 69 +28 +28 душно 1013.0 1010.7 +25.9
15 13.09 В 3 20 км 4/0
[]
+23.5 +19.0 76 +28 +28 душно 1012.6 1010.3
18 13.09 СВ 4 20 км 3/3 300 м
[]
+21.4 +19.3 88 +26 +26 душно 1011.9 1009.5
21 13.09 С 1 20 км 3/0
[]
+20.7 +18.4 87 +26 +26 душно 1012.0 1009.6
00 14.09 СВ 4 20 км 3/0
[]
+24.5 +18.6 70 +29 +33 душно 1012.3 1010.0 +20.7
03 14.09 В 4 20 км 3/0
[]
+26.4 +19.5 66 +32 +41 очень
душно
1011.6 1009.3
06 14.09 С 3 20 км ясно +26.8 +18.1 59 +31 +40 душно 1010.6 1008.3
09 14.09 С 2 20 км 3/0
[]
+25.7 +18.8 66 +31 +31 очень
душно
1010.3 1008.0
12 14.09 С 4 20 км 5/0
[]
+23.6 +18.6 74 +28 +28 душно 1011.4 1009.1 +27.7
15 14.09 С 3 20 км 4/0
[]
+23.4 +19.5 79 +30 +30 очень
душно
1011.0 1008.7
18 14.09 С 2 20 км 5/0
[]
+22.6 +19.3 82 +29 +29 очень
душно
1010.0 1007.7
21 14.09 С 2 20 км 6/0
[]
+22.5 +19.4 83 +29 +29 очень
душно
1009.6 1007.3
00 15.09 СВ 3 20 км 5/0
[]
+25.9 +20.9 74 +32 +36 очень
душно
1010.6 1008.3 +22.3
03 15.09 В 4 20 км 3/1 1500 м
[]
+28.2 +21.4 67 +36 +44 очень
душно
1009.7 1007.4
06 15.09 В 4 20 км 3/0
[]
+27.6 +20.1 64 +34 +40 очень
душно
1008.6 1006.3
09 15.09 СВ 3 17 км 3/0
[]
+25.6 +21.2 77 +32 +33 очень
душно
1008.7 1006.4
12 15.09 С 2 8000 м 4/0
[]
+23.6 +21.1 86 +30 +30 очень
душно
1010.1 1007.8 +28.8
15 15.09 15 км н/о +23.5 +21.5 89 +30 +30 очень
душно
1009.9 1007.6
18 15.09 В 3 16 км 8/6 300 м
[]
+23.8 +21.3 86 +30 +30 очень
душно
1009.0 1006.7

 

Местоположение метеостанции Сеонгсан (Корея): широта 33.39 долгота 126.88 высота над уровнем моря 19 м.

В архиве по умолчанию представлена погода на Сеонгсане за последнюю неделю. Архивные данные за месяц целиком и за предыдущие месяцы, начиная с января 2011 года, Вы можете получить, выбрав интересующий диапазон дат из раскрывающегося списка и нажав кнопку "Ввод!".


*Определитесь, кто Вы:
робот инопланетянин человек

Внимание! Время в таблицах - всемирное. Для получения местного времени необходимо прибавить поправку, которая равна 9 ч.

Смотрите также архив погоды в соседних городах и на ближайших метеорологических станциях:

Погода в Согвипхо (Корея) (34 км)
Погода на Чеджудо (Корея) (36 км)
Погода на Ёнпхёндо (Корея) (61 км)
Погода в Уондо (Корея) (114 км)
Погода на Радаре Jindo (Корея) (130 км)
Погода в Мокпхо (Корея) (166 км)
Погода в Йосу (Корея) (169 км)
Погода в Сунчхоне (Корея) (190 км)
Погода в Хыксандо (Корея) (195 км)
Погода на Фукуэ (Япония) (197 км)

Пояснения к столбцам:

Ветер - указаны скорость ветра в м/с - средняя за 10 мин, порывы в срок и между сроками (в фигурных скобках) и направление, откуда дует ветер: С - северный, СВ - северо-восточный, В - восточный, ЮВ - юго-восточный, Ю - южный, ЮЗ - юго-западный, З - западный, СЗ - северо-западный.
Видимость - горизонтальная дальность видимости в метрах или километрах. При видимости от 1 до 10 км при отсутствии осадков обычно наблюдается дымка, при ухудшении видимости до 1 км и менее - туман. В сухую погоду видимость может ухудшаться дымом, пылью или мглою.
Явления - указаны атмосферные явления, наблюдавшиеся в срок или в последний час перед сроком; фигурными скобками обозначены явления, наблюдавшиеся между сроками (за 1-3 часа до срока); квадратными скобками обозначены град или гололедные отложения с указанием их диаметра в мм.
Облачность - указаны через наклонную черту общая и нижняя облачность в баллах и высота нижней границы облаков в метрах; квадратными скобками обозначены формы облаков: Ci - перистые, Cs - перисто-слоистые, Cc - перисто-кучевые, Ac - высококучевые, As - высокослоистые, Sc - слоисто-кучевые, Ns - слоисто-дождевые, Cu - кучевые, Cb - кучево-дождевые. Подробнее классификацию облаков см. в Атласе облаков (PDF).
T - Температура воздуха - температура, измеренная на высоте 2 м над землей.
Td - Температура точки росы - температура, при понижении до которой содержащийся в воздухе водяной пар достигнет насыщения.
f - Относительная влажность воздуха - влажноcть воздуха, измеренная на высоте 2 м над землей.
Te - Эффективная температура - температура, которую ощущает одетый по сезону человек в тени. Характеристика душности погоды. При расчете учитывается влияние влажности воздуха и скорости ветра на теплоощущения человека.
Tes - Эффективная температура на солнце - температура, которую ощущает человек, с поправкой на солнечный нагрев. Характеристика знойности погоды. Зависит от высоты солнца над горизонтом, облачности и скорости ветра. Ночью, в пасмурную погоду, а также при ветре 12 м/с и более поправка равна нулю.
P - Атмосферное давление - приведенное к уровню моря атмосферное давление.
Po - Атмосферное давление - измеренное на уровне метеостанции атмосферное давление.
Tmin - Минимальная температура - минимум температуры воздуха на высоте 2 м над землей.
Tmax - Максимальная температура - максимум температуры воздуха на высоте 2 м над землей.
R - Количество осадков - Количество выпавших осадков за период времени, мм. При наведении курсора мыши на число - период времени, за который выпало указанное количество осадков.
R24 - Количество осадков - Количество выпавших осадков за 24 часа, мм.
S - Снежный покров - Высота снежного покрова, см. При наведении курсора мыши на число - состояние снежного покрова и степень покрытия местности в баллах.